Vertical_Velocity
-1 -4 14 -6 -3 -6 6 3 4 1 5 -11 -1 -5 6 -0 -1 -2 -1 -0 -3 -1 5 -3 -0 -3 -0 -2 -2 -0 -3 4 -2 -1 -2 -1 -1 -4 2 3 0 1 3 1
0 18 -8 1 4 2 1 3 4 5 -1 -10 1 -0 -6 5 1 2 4 2 1 -4 -2 -1 -1 1 1 5 1 -2 -1 -1 -0 -1 1 -1 -19 6 5 7 0 -0 -0 4
-1 3 3 3 1 5 2 0 3 -3 -2 1 -9 -13 -12 -4 8 1 6 -4 -6 -0 -2 -4 -6 -4 -5 -2 4 3 -1 3 1 -3 -1 -9 16 -1 -3 1 4 4 1 1
-0 5 3 -0 9 -2 0 -3 -0 -1 -3 -5 8 -51 -4 -5 -0 4 7 -1 -3 -2 -3 2 -0 0 0 2 -2 -1 -2 0 0 -1 -0 3 1 -0 3 0 4 7 6 1
3 2 1 9 -4 -1 -4 6 -0 -2 -5 -12 16 -23 13 4 4 1 1 -1 2 4 -6 -5 -0 -2 -1 -1 -1 9 4 -3 -3 -0 0 -2 -2 3 5 2 -1 0 5 3
1 0 4 -1 -5 1 1 2 -0 -6 -4 -28 20 -1 -3 8 4 -0 1 -0 -5 -8 -3 0 -0 1 2 -0 -4 3 5 5 -4 -1 -0 1 -4 10 -0 0 1 3 5 2
-1 7 -4 2 -2 0 1 -3 -9 -7 -7 -11 1 -29 37 8 -12 6 2 -4 -3 -5 -3 -1 3 -3 1 4 -1 -3 5 6 4 1 -1 -3 2 3 -1 2 1 3 3 3
-1 -4 0 -1 1 -2 -3 -5 12 -17 -11 5 -20 -19 15 -8 -4 8 6 -6 -2 -7 -5 -8 -12 -1 1 1 -0 1 4 4 4 1 4 -7 6 1 3 2 -1 3 1 -1
-0 1 -0 1 -1 -3 11 3 -2 -11 6 -18 10 15 -7 -10 17 -10 -13 1 3 -4 -6 -6 2 -8 0 -2 -3 11 4 5 1 -1 -3 4 3 2 2 1 1 1 1 1
7 -2 0 3 -2 -4 -2 7 -4 -7 -9 -19 4 1 -22 -8 -11 -13 -3 5 -2 -6 -6 -3 6 4 -4 -0 2 7 3 6 1 -1 0 6 1 2 2 0 0 -2 -0 4
-1 1 4 -1 -6 -1 -4 0 -1 -7 1 -15 -21 29 -2 -4 -7 -4 5 -12 2 -3 -1 -3 7 1 -0 -2 0 6 0 5 2 2 3 4 2 3 1 -1 -1 2 0 3
-0 -0 2 -5 -4 -4 -1 1 0 -5 4 -1 -4 -19 4 5 -3 1 1 -7 -6 2 -5 4 2 -1 1 -1 6 4 6 6 1 5 3 2 2 2 0 1 1 -1 1 1
-0 3 1 -4 -2 -3 3 -2 -5 -6 -1 35 -8 3 -20 -3 -6 7 -2 -7 5 -2 2 7 4 2 -1 6 7 2 7 2 7 1 3 3 4 -1 3 -2 1 3 3 0
-2 1 -4 1 -3 1 3 -4 -1 -2 -4 -1 17 -7 18 -5 -5 -3 -1 -4 -3 -1 -0 1 6 3 -1 3 4 7 6 6 4 1 3 3 4 1 1 0 1 1 1 0
-4 -0 2 1 -0 -2 -3 1 0 -2 -0 -10 13 -3 -2 2 -2 -2 0 2 0 -1 -3 3 3 2 -0 5 8 8 4 6 4 4 3 4 1 2 0 0 -0 -0 0 1
-2 -2 3 -2 -0 -1 4 -2 2 4 3 -1 -3 -6 -7 -3 -3 10 11 3 1 2 -3 -1 2 -1 5 5 7 3 3 1 -1 2 3 3 3 0 0 0 -1 -0 0 1
1 2 -0 -1 0 -2 0 2 3 1 -1 -1 -3 -2 -5 -5 -2 -5 -0 3 2 1 2 -2 -4 4 7 5 3 4 2 1 2 5 1 4 1 2 1 1 -1 -1 1 1
3 -1 -2 -0 -3 -3 2 1 1 0 1 -0 -1 -2 -0 -3 -3 -3 0 2 1 -4 -2 -0 -4 7 3 5 2 1 0 -1 1 2 -0 -0 1 -0 -0 -2 2 2 1 1
-0 -1 1 -3 -2 3 3 -0 1 -1 0 -2 -1 -0 1 -3 14 -5 -4 -0 -1 -1 -4 -5 -1 3 4 4 -0 -0 -1 2 -1 -3 -4 11 -1 -1 0 2 0 2 2 2
-2 1 -1 -4 -1 1 0 1 -1 1 0 -1 -2 2 -0 4 32 6 33 4 -0 -3 -2 -3 -0 1 -2 -4 -9 -10 -6 -4 9 65 11 -4 -1 1 1 2 2 1 0 4
0 1 -1 -1 -1 4 -0 2 -1 0 -0 -0 -2 0 -0 -0 2 -4 3 -4 -1 -5 -9 -6 -5 4 -1 4 7 2 -3 -7 -6 -4 -3 -0 2 3 0 -1 3 3 1 0
0 -1 -2 0 2 0 0 -0 1 -0 6 -0 5 -1 -1 2 4 3 0 5 4 -0 1 -2 -2 2 2 2 3 3 3 2 1 5 6 0 -1 1 1 1 0 1 2 1
-2 -2 1 4 -0 -1 -2 0 -0 1 0 1 1 -0 0 3 8 14 0 4 10 -0 -3 1 0 -1 -3 2 6 10 10 4 0 -2 1 1 1 1 1 1 2 1 1 0
0 -1 2 1 -2 -1 -2 -2 1 1 0 2 0 0 12 1 6 1 -1 -2 -2 3 2 2 3 -1 -1 -2 -1 0 2 3 -2 3 2 1 1 1 1 1 2 1 -1 -1
1 1 1 -0 -2 -1 0 -3 1 2 -1 1 0 1 -1 -0 6 -0 8 7 3 -0 1 1 1 2 2 2 1 1 1 1 3 0 -1 -0 1 2 2 1 -1 -2 -2 -0
1 -2 1 0 -1 -0 1 -3 3 2 -1 1 -0 2 0 -0 0 1 2 0 -0 1 -0 1 2 1 2 1 1 1 0 -1 -1 -0 1 1 2 1 -1 -1 -0 -5 -0 -0
Height
5667 5673 5678 5681 5686 5691 5696 5700 5703 5705 5708 5710 5712 5715 5718 5721 5723 5724 5724 5725 5727 5728 5729 5729 5731 5734 5738 5741 5743 5744 5744 5747 5748 5750 5752 5754 5756 5758 5760 5760 5759 5760 5761 5760
5664 5670 5672 5677 5682 5687 5690 5694 5697 5699 5701 5703 5704 5708 5708 5712 5714 5715 5716 5717 5718 5719 5718 5719 5720 5724 5727 5731 5734 5735 5736 5739 5741 5743 5745 5745 5747 5754 5753 5752 5752 5754 5753 5752
5659 5665 5669 5673 5677 5681 5684 5687 5690 5692 5693 5694 5694 5700 5701 5703 5704 5703 5702 5703 5703 5703 5703 5704 5704 5708 5713 5717 5722 5725 5728 5730 5734 5735 5736 5736 5741 5745 5745 5746 5746 5747 5746 5744
5656 5662 5666 5669 5673 5675 5679 5681 5683 5684 5684 5684 5687 5686 5693 5691 5691 5689 5687 5685 5685 5685 5688 5692 5694 5697 5700 5705 5710 5715 5717 5720 5722 5725 5727 5730 5733 5736 5739 5739 5739 5740 5740 5738
5653 5657 5662 5665 5668 5671 5673 5675 5675 5675 5674 5674 5676 5670 5687 5678 5676 5673 5670 5667 5668 5670 5673 5677 5681 5683 5687 5691 5696 5701 5705 5709 5712 5716 5720 5722 5724 5727 5732 5732 5732 5732 5732 5730
5647 5653 5657 5660 5663 5665 5667 5667 5667 5666 5664 5664 5663 5659 5674 5665 5660 5656 5653 5651 5650 5651 5655 5660 5664 5669 5674 5677 5682 5689 5694 5699 5703 5707 5710 5713 5716 5721 5723 5724 5724 5724 5725 5724
5643 5648 5651 5654 5657 5658 5659 5659 5657 5656 5655 5655 5651 5648 5654 5651 5646 5642 5639 5636 5638 5638 5639 5644 5648 5652 5659 5664 5669 5677 5683 5689 5693 5698 5701 5703 5709 5712 5713 5715 5716 5717 5717 5717
5639 5643 5646 5649 5650 5651 5651 5652 5651 5646 5644 5644 5638 5638 5639 5635 5637 5630 5627 5625 5625 5626 5626 5629 5633 5637 5642 5650 5656 5664 5670 5676 5683 5688 5692 5695 5701 5704 5706 5707 5709 5710 5710 5709
5634 5638 5641 5643 5644 5645 5646 5644 5642 5640 5638 5632 5630 5630 5628 5623 5621 5619 5613 5607 5606 5607 5610 5613 5619 5622 5628 5636 5643 5651 5658 5665 5672 5678 5682 5688 5691 5695 5698 5699 5700 5702 5702 5701
5631 5634 5636 5638 5639 5638 5637 5639 5637 5633 5628 5624 5623 5617 5610 5604 5602 5596 5593 5590 5588 5585 5590 5596 5603 5607 5614 5619 5629 5637 5646 5655 5662 5668 5674 5680 5683 5686 5690 5692 5693 5693 5694 5693
5626 5629 5634 5633 5632 5631 5631 5631 5629 5625 5622 5617 5609 5609 5597 5594 5588 5584 5579 5572 5569 5565 5569 5577 5584 5591 5599 5606 5615 5625 5635 5645 5653 5659 5667 5671 5675 5679 5682 5683 5685 5686 5686 5686
5622 5625 5628 5626 5625 5625 5626 5625 5622 5618 5615 5605 5602 5598 5588 5581 5575 5570 5562 5558 5553 5548 5551 5558 5566 5576 5585 5592 5603 5614 5625 5637 5645 5651 5657 5663 5668 5671 5674 5676 5678 5678 5678 5678
5619 5622 5622 5621 5621 5621 5621 5618 5615 5609 5604 5603 5594 5588 5576 5568 5562 5557 5552 5547 5541 5539 5541 5546 5553 5562 5573 5582 5592 5605 5617 5628 5637 5643 5650 5656 5661 5664 5666 5668 5669 5671 5671 5671
5614 5617 5617 5617 5614 5615 5615 5614 5611 5606 5599 5593 5588 5570 5573 5560 5554 5548 5541 5538 5534 5531 5534 5539 5546 5554 5563 5575 5587 5600 5611 5620 5629 5637 5643 5649 5654 5657 5659 5662 5663 5663 5663 5662
5611 5612 5611 5611 5610 5610 5611 5610 5607 5601 5596 5587 5582 5570 5564 5554 5546 5539 5532 5527 5525 5526 5528 5533 5540 5550 5560 5573 5585 5597 5606 5616 5624 5631 5637 5644 5648 5651 5654 5655 5656 5656 5655 5654
5606 5607 5608 5608 5607 5607 5607 5605 5602 5598 5590 5583 5577 5571 5562 5551 5542 5536 5529 5524 5520 5520 5524 5531 5539 5552 5564 5572 5584 5594 5603 5613 5620 5627 5634 5638 5642 5647 5648 5649 5649 5648 5647 5646
5602 5602 5604 5605 5605 5605 5605 5602 5599 5591 5586 5582 5577 5571 5563 5555 5546 5538 5533 5526 5523 5523 5527 5537 5545 5557 5566 5576 5586 5595 5604 5611 5618 5624 5630 5635 5639 5641 5641 5641 5641 5641 5640 5637
5598 5600 5601 5602 5603 5602 5600 5597 5593 5589 5585 5580 5577 5572 5566 5559 5553 5547 5541 5538 5537 5538 5542 5548 5555 5564 5572 5581 5589 5596 5603 5611 5618 5624 5628 5631 5633 5634 5634 5634 5634 5633 5631 5628
5596 5598 5598 5600 5600 5600 5598 5594 5591 5588 5584 5578 5576 5574 5568 5565 5556 5552 5549 5548 5549 5551 5555 5559 5565 5572 5579 5586 5592 5599 5605 5612 5617 5621 5624 5626 5627 5629 5628 5628 5627 5625 5623 5619
5593 5595 5597 5598 5597 5597 5594 5591 5589 5586 5584 5579 5577 5576 5573 5567 5559 5559 5556 5559 5561 5562 5564 5569 5574 5579 5584 5590 5595 5600 5606 5609 5613 5615 5617 5622 5622 5622 5622 5621 5619 5616 5613 5610
5592 5593 5595 5595 5594 5595 5592 5590 5588 5588 5588 5581 5579 5578 5577 5573 5570 5569 5569 5570 5570 5571 5574 5577 5581 5586 5590 5595 5599 5604 5608 5610 5613 5615 5616 5616 5617 5616 5615 5613 5611 5608 5604 5600
5590 5592 5594 5593 5593 5593 5590 5589 5589 5588 5585 5583 5581 5579 5578 5578 5575 5574 5574 5574 5574 5575 5578 5581 5583 5587 5591 5595 5598 5601 5604 5606 5608 5610 5611 5611 5610 5609 5608 5605 5602 5599 5595 5591
5589 5591 5593 5593 5592 5591 5590 5588 5587 5586 5586 5584 5583 5581 5579 5579 5576 5578 5579 5579 5579 5579 5582 5583 5586 5589 5592 5595 5597 5599 5602 5604 5604 5605 5605 5605 5604 5602 5600 5598 5594 5590 5586 5580
5586 5589 5590 5591 5590 5590 5589 5587 5586 5585 5584 5584 5583 5583 5582 5582 5582 5582 5583 5583 5584 5585 5586 5588 5589 5591 5593 5595 5597 5598 5599 5600 5601 5600 5600 5599 5598 5596 5593 5590 5585 5581 5576 5571
5584 5587 5588 5588 5588 5588 5587 5586 5585 5584 5583 5583 5582 5583 5583 5583 5583 5584 5584 5584 5585 5587 5587 5589 5590 5591 5592 5593 5595 5596 5596 5596 5596 5596 5595 5593 5591 5588 5585 5581 5576 5571 5566 5560
5581 5583 5585 5585 5585 5585 5585 5584 5584 5583 5583 5581 5582 5582 5582 5583 5583 5584 5584 5585 5586 5587 5588 5588 5589 5590 5591 5592 5593 5593 5593 5593 5592 5591 5589 5586 5584 5580 5576 5572 5567 5562 5557 5551